Weather History for Taiz, Yemen

Change the Weather History Date:

Wednesday, February 20, 2013

  Actual Average Record
Temperature  
Mean Temperature 69 °F -  
Max Temperature 85 °F 77 °F 85 °F (2013)
Min Temperature 53 °F 63 °F 51 °F (2009)
Cooling Degree Days 4    
Growing Degree Days 19 (Base 50)    
Moisture  
Dew Point 50 °F    
Average Humidity 52    
Maximum Humidity 82    
Minimum Humidity 17    
Precipitation  
Precipitation 0.00 in - - ()
Sea Level Pressure  
Sea Level Pressure 29.94 in    
Wind  
Wind Speed 5 mph ()    
Max Wind Speed 14 mph    
Max Gust Speed -    
Visibility 6.1 miles    
Events      
Averages and records for this station are not official NWS values.
T = Trace of Precipitation, MM = Missing Value Source: Averaged Metar Reports

Daily Weather History Graph

Daily Weather History Graph

Search for Another Location

Airport:

Trip Planner

Search our weather history database for the weather conditions in past years. The results will help you decide how hot, cold, wet, or windy it might be!

Date:

Astronomy

Feb. 20, 2013 Rise Set
Actual Time 6:24 AM AST 6:10 PM AST
Civil Twilight 6:02 AM AST 6:31 PM AST
Nautical Twilight 5:37 AM AST 6:56 PM AST
Astronomical Twilight 5:12 AM AST 7:21 PM AST
Moon 1:40 PM AST (2/20) 1:58 AM AST (2/20)
Length of Visible Light 12h 28m
Length of Day
11h 45m
Waxing Gibbous, 73% of the Moon is Illuminated
Feb 20
Waxing Gibbous
Feb 25
Full
Mar 5
Last Quarter
Mar 11
New
Mar 19
First Quarter

Hourly Weather History & Observations

Time (AST) Temp. Dew Point Humidity Pressure Visibility Wind Dir Wind Speed Gust Speed Precip Events Conditions
12:00 AM 60 °F 48 °F 54%  in 6 mi NE 5.8 mph - -  
12:00 AM 59.0 °F 48.2 °F 67% 29.92 in - NE 5.8 mph - N/A   Clear
1:00 AM 59.0 °F 50.0 °F 72% 29.92 in - Calm Calm - N/A   Clear
2:00 AM 57.2 °F 48.2 °F 72% 29.92 in - Calm Calm - N/A   Clear
3:00 AM 55.4 °F 46.4 °F 72% 29.92 in - Calm Calm - N/A   Clear
4:00 AM 55.4 °F 44.6 °F 67% 29.92 in - Calm Calm - N/A   Clear
5:00 AM 55.4 °F 42.8 °F 63% 29.89 in - Calm Calm - N/A   Clear
6:00 AM 55.4 °F 41.0 °F 58% 29.92 in - North 6.9 mph - N/A   Clear
9:00 AM 73 °F 53 °F 40%  in 6 mi SSW 6.9 mph - -   Scattered Clouds
9:00 AM 73.4 °F 53.6 °F 50% 29.98 in - SSW 6.9 mph - N/A   Clear
10:00 AM 75.2 °F 50.0 °F 41% 29.98 in - SSW 5.8 mph - N/A   Clear
11:00 AM 78.8 °F 42.8 °F 28% 29.98 in - West 6.9 mph - N/A   Clear
12:00 PM 81 °F 43 °F 17%  in 6 mi SW 11.5 mph - -  
12:00 PM 80.6 °F 42.8 °F 26% 29.98 in - SW 11.5 mph - N/A   Clear
1:00 PM 82.4 °F 46.4 °F 28% 29.95 in 6.2 mi WSW 9.2 mph - N/A   Partly Cloudy
2:00 PM 80.6 °F 51.8 °F 37% 29.92 in 6.2 mi West 11.5 mph - N/A   Partly Cloudy
3:00 PM 82.4 °F 51.8 °F 35% 29.89 in 6.2 mi WSW 13.8 mph - N/A   Partly Cloudy
4:00 PM 80.6 °F 51.8 °F 37% 29.89 in 6.2 mi West 13.8 mph - N/A   Partly Cloudy
5:00 PM 78.8 °F 53.6 °F 42% 29.89 in 6.2 mi WSW 11.5 mph - N/A   Partly Cloudy
6:00 PM 77.0 °F 53.6 °F 44% 29.92 in - WSW 11.5 mph - N/A   Clear
7:00 PM 73.4 °F 59.0 °F 61% 29.92 in - WSW 8.1 mph - N/A   Clear
8:00 PM 69.8 °F 59.0 °F 68% 29.95 in - SSW 5.8 mph - N/A   Clear
9:00 PM 69 °F 55 °F 52%  in 6 mi SSE 3.5 mph - -  
9:00 PM 68.0 °F 55.4 °F 64% 29.98 in - SSE 3.5 mph - N/A   Clear
10:00 PM 66.2 °F 57.2 °F 73% 29.98 in - NNW 3.5 mph - N/A   Clear
11:00 PM 62.6 °F 57.2 °F 82% 29.98 in - North 3.5 mph - N/A   Clear